Flag for Liberia Weather past 2 weeks in Kakata, Liberia

Now
77 °F

Clear.


Feels Like: 78 °F
Forecast: 72 / 91 °F
Wind: No wind

Location: Roberts Field

Current Time: Mar 5, 2015 at 12:22:53 AM

Latest Report: Mar 5, 2015 at 12:00 AM


Visibility: 4 mi

Pressure: 29.89 "Hg

Humidity: 94%

Dew point: 75 °F

Location of KakataLocation

Historic Weather in Kakata — Graph

°F

Kakata temperature yesterday

Maximum temperature yesterday: 90 °F (at 2:30 PM)
Minimum temperature yesterday: 75 °F (at 1:00 AM)
Average temperature yesterday: 82 °F

Past Weeks' High & Low Weather Summary

 TemperatureHumidityPressure
High91 °F (Feb 19, 3:00 PM)100% (Feb 19, 4:00 AM)29.95 "Hg (Feb 19, 4:00 AM)
Low70 °F (Mar 3, 7:00 AM)55% (Feb 18, 2:00 PM)29.74 "Hg (Feb 18, 3:30 PM)
Average80 °F83%29.85 "Hg
* Reported Feb 17 11:00 PM — Mar 4 11:30 PM, Kakata, Weather by CustomWeather, © 2015

Note: Actual official high and low records may vary slightly from our data, if they occured in-between our weather recording intervals... More about our weather records

Advertising

Kakata weather history for previous 24 hours

 ConditionsComfort  
Time TempWeatherWind HumidityBarometerVisibility
11:30 PM
Wed, Mar 4
77 °FClear.No wind94%29.89 "Hg4 mi
11:00 PM77 °FClear.No wind94%29.89 "Hg4 mi
10:30 PM77 °FClear.No wind94%29.89 "Hg4 mi
10:00 PM77 °FClear.No wind94%29.89 "Hg4 mi
9:00 PM77 °FClear.No wind94%29.86 "Hg4 mi
8:00 PM79 °FClear.No wind89%29.83 "Hg4 mi
7:30 PM79 °FPassing clouds.No wind89%29.83 "Hg4 mi
7:00 PM81 °FPartly sunny.7 mph84%29.80 "Hg4 mi
6:30 PM82 °FPassing clouds.9 mph79%29.80 "Hg4 mi
6:00 PM84 °FPassing clouds.8 mph74%29.80 "Hg5 mi
5:30 PM86 °FPassing clouds.9 mph75%29.80 "Hg5 mi
5:00 PM86 °FPassing clouds.9 mph75%29.80 "Hg5 mi
4:30 PM88 °FPassing clouds.9 mph70%29.80 "Hg5 mi
4:00 PM90 °FPassing clouds.13 mph67%29.80 "Hg4 mi
3:30 PM90 °FScattered clouds.12 mph67%29.80 "Hg4 mi
3:00 PM90 °FScattered clouds.14 mph67%29.80 "Hg4 mi
2:30 PM90 °FScattered clouds.12 mph67%29.80 "Hg4 mi
2:00 PM88 °FPartly sunny.12 mph62%29.83 "Hg4 mi
1:30 PM88 °FPartly sunny.9 mph62%29.83 "Hg4 mi
1:00 PM88 °FPartly sunny.6 mph62%29.86 "Hg4 mi
12:30 PM88 °FPartly sunny.6 mph66%29.86 "Hg4 mi
11:00 AM84 °FScattered clouds.No wind70%29.92 "Hg4 mi
2:30 AM75 °FClear.No wind94%29.86 "Hg4 mi
2:00 AM75 °FClear.No wind94%29.86 "Hg4 mi
1:30 AM75 °FClear.No wind94%29.86 "Hg4 mi
1:00 AM75 °FClear.3 mph94%29.86 "Hg4 mi
Weather by CustomWeather, © 2015

See weather overviewHow to use our weather pages